When you browse on this site, cookies collect data to enhance your experience and personalize the content and advertising you see.
Visit our Privacy Policy to learn more. By continuing to use the site, you agree to this use of cookies and data.

Hourly Weather Waly

Today, 4 July, Saturday

Time Temperature Precipitation Wind Pressure Humidity
00:00 +14°C° 0 mm 1 mps 749 mmHg 94%
01:00 +13°C° 0 mm 1 mps 749 mmHg 94%
02:00 +13°C° 0 mm 1 mps 749 mmHg 94%
03:00 +13°C° 0 mm 1 mps 749 mmHg 93%
04:00 +13°C° 0 mm 1 mps 749 mmHg 92%
05:00 +15°C° 0 mm 1 mps 749 mmHg 87%
06:00 +17°C° 0 mm 2 mps 749 mmHg 82%
07:00 +18°C° 0 mm 2 mps 750 mmHg 77%
08:00 +20°C° 0 mm 2 mps 750 mmHg 70%
09:00 +21°C° 0 mm 3 mps 750 mmHg 64%
10:00 +24°C° 0 mm 3 mps 750 mmHg 57%
11:00 +25°C° 0 mm 4 mps 749 mmHg 56%
12:00 +25°C° 0 mm 4 mps 749 mmHg 55%
13:00 +26°C° 0 mm 4 mps 749 mmHg 54%
14:00 +25°C° 0 mm 4 mps 749 mmHg 55%
15:00 +25°C° 0 mm 4 mps 748 mmHg 56%
16:00 +25°C° 0 mm 4 mps 748 mmHg 57%
17:00 +23°C° 0 mm 4 mps 748 mmHg 63%
18:00 +22°C° 0 mm 3 mps 748 mmHg 70%
19:00 +21°C° 0 mm 2 mps 748 mmHg 76%
20:00 +20°C° 0 mm 3 mps 748 mmHg 79%
21:00 +19°C° 0 mm 3 mps 748 mmHg 82%
22:00 +18°C° 0 mm 3 mps 747 mmHg 85%
23:00 +18°C° 0 mm 3 mps 747 mmHg 84%

Tomorrow, 5 July, Sunday

Time Temperature Precipitation Wind Pressure Humidity
00:00 +18°C° 0 mm 3 mps 747 mmHg 82%
01:00 +18°C° 0 mm 3 mps 747 mmHg 81%
02:00 +18°C° 0 mm 3 mps 747 mmHg 83%
03:00 +17°C° 0 mm 3 mps 747 mmHg 84%
04:00 +17°C° 0 mm 3 mps 747 mmHg 86%
05:00 +18°C° 0 mm 4 mps 747 mmHg 82%
06:00 +19°C° 0 mm 4 mps 747 mmHg 78%
07:00 +20°C° 0 mm 5 mps 747 mmHg 74%
08:00 +22°C° 0 mm 5 mps 747 mmHg 70%
09:00 +23°C° 0 mm 5 mps 747 mmHg 66%
10:00 +24°C° 0 mm 6 mps 747 mmHg 63%
11:00 +24°C° 0.1 mm 6 mps 746 mmHg 63%
12:00 +26°C° 0.1 mm 6 mps 746 mmHg 63%
13:00 +26°C° 0.1 mm 6 mps 746 mmHg 64%
14:00 +26°C° 0 mm 6 mps 745 mmHg 65%
15:00 +26°C° 0 mm 6 mps 745 mmHg 66%
16:00 +26°C° 0 mm 5 mps 745 mmHg 67%
17:00 +25°C° 0.1 mm 5 mps 745 mmHg 72%
18:00 +23°C° 0.1 mm 4 mps 744 mmHg 78%
19:00 +22°C° 0.1 mm 3 mps 744 mmHg 84%
20:00 +21°C° 0 mm 3 mps 744 mmHg 87%
21:00 +20°C° 0 mm 3 mps 744 mmHg 89%
22:00 +20°C° 0 mm 3 mps 744 mmHg 92%
23:00 +19°C° 0 mm 3 mps 744 mmHg 92%

Day after tomorrow, 6 July, Monday

Time Temperature Precipitation Wind Pressure Humidity
00:00 +19°C° 0 mm 3 mps 744 mmHg 92%
01:00 +19°C° 0 mm 3 mps 743 mmHg 92%
02:00 +19°C° 0.1 mm 3 mps 743 mmHg 92%
03:00 +19°C° 0.1 mm 3 mps 743 mmHg 93%
04:00 +19°C° 0.1 mm 3 mps 743 mmHg 93%
05:00 +19°C° 0 mm 3 mps 743 mmHg 91%
06:00 +19°C° 0 mm 3 mps 743 mmHg 88%
07:00 +20°C° 0 mm 4 mps 743 mmHg 86%
08:00 +20°C° 0 mm 3 mps 743 mmHg 84%
09:00 +20°C° 0 mm 3 mps 743 mmHg 82%
10:00 +19°C° 0 mm 3 mps 743 mmHg 80%
11:00 +21°C° 0.1 mm 4 mps 743 mmHg 71%
12:00 +23°C° 0.1 mm 5 mps 743 mmHg 62%
13:00 +24°C° 0.1 mm 6 mps 743 mmHg 53%
14:00 +24°C° 0 mm 6 mps 743 mmHg 54%
15:00 +23°C° 0 mm 6 mps 743 mmHg 54%
16:00 +23°C° 0 mm 5 mps 743 mmHg 55%
17:00 +21°C° 0 mm 5 mps 743 mmHg 60%
18:00 +20°C° 0 mm 4 mps 743 mmHg 65%
19:00 +18°C° 0 mm 3 mps 743 mmHg 71%
20:00 +17°C° 0 mm 3 mps 744 mmHg 72%
21:00 +14°C° 0 mm 3 mps 744 mmHg 73%
22:00 +13°C° 0 mm 3 mps 744 mmHg 74%
23:00 +13°C° 0 mm 3 mps 745 mmHg 76%

7 July, Tuesday

Time Temperature Precipitation Wind Pressure Humidity
00:00 +12°C° 0 mm 3 mps 745 mmHg 77%
01:00 +12°C° 0 mm 3 mps 745 mmHg 79%
02:00 +12°C° 0 mm 3 mps 745 mmHg 81%
03:00 +12°C° 0 mm 3 mps 745 mmHg 82%
04:00 +11°C° 0 mm 3 mps 745 mmHg 84%
05:00 +12°C° 0 mm 3 mps 746 mmHg 81%
06:00 +13°C° 0 mm 3 mps 746 mmHg 77%
07:00 +14°C° 0 mm 4 mps 746 mmHg 74%
08:00 +15°C° 0.1 mm 4 mps 746 mmHg 70%
09:00 +17°C° 0.1 mm 4 mps 747 mmHg 66%
10:00 +18°C° 0.1 mm 4 mps 747 mmHg 61%
11:00 +17°C° 0.1 mm 5 mps 747 mmHg 60%
12:00 +17°C° 0.1 mm 5 mps 747 mmHg 58%
13:00 +17°C° 0.1 mm 5 mps 747 mmHg 56%
14:00 +17°C° 0.1 mm 5 mps 747 mmHg 56%
15:00 +17°C° 0.1 mm 5 mps 747 mmHg 57%
16:00 +17°C° 0.1 mm 5 mps 748 mmHg 57%
17:00 +17°C° 0 mm 4 mps 748 mmHg 62%
18:00 +16°C° 0 mm 3 mps 748 mmHg 67%
19:00 +15°C° 0 mm 2 mps 748 mmHg 72%
20:00 +14°C° 0 mm 2 mps 748 mmHg 76%
21:00 +13°C° 0 mm 2 mps 748 mmHg 81%
22:00 +12°C° 0 mm 2 mps 748 mmHg 85%
23:00 +10°C° 0 mm 3 mps 748 mmHg 85%

8 July, Wednesday

Time Temperature Precipitation Wind Pressure Humidity
00:00 +10°C° 0 mm 3 mps 748 mmHg 85%
01:00 +10°C° 0 mm 3 mps 748 mmHg 85%
02:00 +10°C° 0 mm 3 mps 748 mmHg 86%
03:00 +10°C° 0 mm 3 mps 748 mmHg 87%
04:00 +10°C° 0 mm 3 mps 748 mmHg 88%
05:00 +11°C° 0 mm 4 mps 748 mmHg 82%
06:00 +13°C° 0 mm 5 mps 748 mmHg 76%
07:00 +14°C° 0 mm 5 mps 748 mmHg 70%
08:00 +15°C° 0.1 mm 6 mps 748 mmHg 65%
09:00 +16°C° 0.1 mm 6 mps 748 mmHg 60%
10:00 +17°C° 0.1 mm 7 mps 748 mmHg 55%
11:00 +17°C° 0.2 mm 6 mps 748 mmHg 57%
12:00 +17°C° 0.2 mm 6 mps 748 mmHg 59%
13:00 +17°C° 0.2 mm 6 mps 748 mmHg 61%
14:00 +17°C° 0.2 mm 6 mps 748 mmHg 61%
15:00 +19°C° 0.2 mm 5 mps 748 mmHg 62%
16:00 +19°C° 0.2 mm 5 mps 748 mmHg 62%
17:00 +18°C° 0.1 mm 4 mps 748 mmHg 67%
18:00 +17°C° 0.1 mm 3 mps 748 mmHg 72%
19:00 +16°C° 0.1 mm 2 mps 748 mmHg 77%
20:00 +15°C° 0 mm 2 mps 748 mmHg 79%
21:00 +13°C° 0 mm 2 mps 748 mmHg 81%
22:00 +12°C° 0 mm 2 mps 748 mmHg 82%
23:00 +13°C° 0 mm 2 mps 748 mmHg 80%

9 July, Thursday

Time Temperature Precipitation Wind Pressure Humidity
00:00 +12°C° 0 mm 3 mps 748 mmHg 78%
01:00 +13°C° 0 mm 3 mps 747 mmHg 75%
02:00 +13°C° 0 mm 3 mps 747 mmHg 76%
03:00 +14°C° 0 mm 3 mps 747 mmHg 76%
04:00 +14°C° 0 mm 3 mps 746 mmHg 76%
05:00 +14°C° 0.3 mm 3 mps 746 mmHg 80%
06:00 +13°C° 0.3 mm 3 mps 746 mmHg 84%
07:00 +13°C° 0.3 mm 3 mps 746 mmHg 88%
08:00 +13°C° 0.3 mm 4 mps 746 mmHg 90%
09:00 +14°C° 0.3 mm 4 mps 747 mmHg 92%
10:00 +14°C° 0.3 mm 4 mps 747 mmHg 94%
11:00 +15°C° 0.1 mm 5 mps 747 mmHg 89%
12:00 +16°C° 0.1 mm 5 mps 747 mmHg 85%
13:00 +17°C° 0.1 mm 5 mps 747 mmHg 80%
14:00 +19°C° 0 mm 5 mps 747 mmHg 72%
15:00 +20°C° 0 mm 5 mps 747 mmHg 65%
16:00 +20°C° 0 mm 5 mps 747 mmHg 58%
17:00 +19°C° 0 mm 4 mps 747 mmHg 63%
18:00 +18°C° 0 mm 3 mps 747 mmHg 67%
19:00 +17°C° 0 mm 2 mps 747 mmHg 72%
20:00 +16°C° 0 mm 2 mps 747 mmHg 75%
21:00 +15°C° 0 mm 2 mps 747 mmHg 77%
22:00 +14°C° 0 mm 2 mps 747 mmHg 80%
23:00 +14°C° 0 mm 2 mps 747 mmHg 80%
Show more